Precipitable_Water
1.78 1.76 1.68 1.59 1.55 1.37 1.16 0.93 0.68 0.55 0.62 0.70 0.74 0.76 0.77 0.77 0.78 0.81 0.83 0.81 0.78 0.85 0.91 0.98 0.97 0.99 0.96 0.91 0.84 0.84 0.75 0.72
1.60 1.55 1.48 1.46 1.42 1.31 0.99 0.76 0.55 0.56 0.70 0.75 0.76 0.75 0.76 0.77 0.76 0.80 0.82 0.82 0.90 0.94 0.97 1.01 1.00 0.98 0.97 0.91 0.83 0.80 0.73 0.70
1.54 1.49 1.49 1.54 1.42 1.14 0.91 0.72 0.65 0.71 0.79 0.79 0.90 0.95 0.95 0.86 0.83 0.90 0.95 0.95 1.00 1.03 1.07 1.07 0.99 0.97 0.94 0.89 0.83 0.77 0.72 0.68
1.42 1.37 1.26 1.36 1.21 0.99 0.75 0.65 0.71 0.85 0.95 0.96 1.00 1.05 1.06 1.02 0.97 1.00 1.03 1.07 1.11 1.07 1.07 0.97 0.91 0.88 0.87 0.85 0.80 0.70 0.64 0.65
1.26 1.31 1.30 1.22 0.96 0.71 0.67 0.75 0.92 1.01 1.04 1.10 1.09 1.06 1.09 1.07 1.09 1.07 1.10 1.04 0.99 0.96 0.94 0.88 0.81 0.77 0.79 0.76 0.67 0.60 0.58 0.56
1.12 1.17 1.11 0.99 0.80 0.72 0.82 0.87 1.04 1.08 1.15 1.16 1.12 1.08 1.10 1.06 1.06 1.04 0.99 0.98 0.95 0.93 0.85 0.80 0.77 0.77 0.72 0.61 0.56 0.54 0.50 0.51
0.98 1.04 1.01 0.91 0.83 0.88 0.96 1.09 1.13 1.17 1.16 1.18 1.16 1.08 1.05 0.99 0.94 0.92 0.93 0.93 0.88 0.76 0.68 0.67 0.65 0.61 0.58 0.57 0.54 0.51 0.50 0.49
1.05 1.04 1.02 0.98 0.98 1.00 1.09 1.20 1.22 1.20 1.16 1.09 1.06 1.01 0.96 0.90 0.92 0.92 0.84 0.75 0.67 0.60 0.58 0.57 0.57 0.58 0.56 0.55 0.48 0.47 0.49 0.49
1.00 1.00 1.03 1.00 1.00 1.08 1.17 1.27 1.23 1.07 1.03 1.04 0.98 0.99 0.92 0.90 0.83 0.72 0.64 0.59 0.60 0.61 0.61 0.60 0.57 0.55 0.53 0.52 0.47 0.47 0.45 0.43
0.95 0.99 1.01 1.05 1.05 1.10 1.17 1.16 1.06 1.01 1.02 0.96 0.88 0.83 0.79 0.70 0.63 0.57 0.61 0.64 0.64 0.62 0.59 0.55 0.56 0.56 0.49 0.45 0.46 0.44 0.41 0.38
0.92 0.97 0.98 1.03 1.08 1.11 1.05 1.06 0.96 0.88 0.82 0.76 0.72 0.67 0.64 0.62 0.61 0.63 0.67 0.65 0.64 0.60 0.57 0.56 0.50 0.45 0.43 0.43 0.45 0.40 0.38 0.37
0.98 0.99 1.02 1.04 1.05 1.02 0.98 0.89 0.79 0.75 0.71 0.65 0.60 0.59 0.64 0.64 0.63 0.64 0.66 0.65 0.60 0.54 0.49 0.45 0.40 0.40 0.39 0.38 0.38 0.39 0.37 0.35
0.98 1.02 1.05 1.05 0.98 0.90 0.88 0.77 0.71 0.71 0.67 0.62 0.60 0.60 0.62 0.63 0.64 0.65 0.65 0.59 0.50 0.46 0.42 0.39 0.37 0.38 0.36 0.37 0.38 0.38 0.35 0.34
1.03 1.05 1.06 1.05 0.99 0.93 0.90 0.77 0.74 0.67 0.65 0.61 0.62 0.63 0.66 0.66 0.63 0.59 0.58 0.55 0.47 0.45 0.43 0.39 0.39 0.41 0.36 0.35 0.29 0.31 0.32 0.33
1.05 1.07 1.07 1.07 1.02 0.97 0.90 0.78 0.73 0.66 0.63 0.62 0.63 0.63 0.64 0.62 0.58 0.53 0.49 0.46 0.39 0.37 0.39 0.39 0.36 0.40 0.41 0.36 0.29 0.25 0.29 0.33
1.10 1.13 1.08 1.07 1.04 0.96 0.89 0.72 0.65 0.66 0.65 0.63 0.62 0.63 0.61 0.60 0.58 0.53 0.46 0.41 0.39 0.41 0.41 0.39 0.41 0.39 0.42 0.41 0.39 0.35 0.26 0.24
1.10 1.11 1.10 1.07 1.07 1.00 0.89 0.76 0.74 0.72 0.66 0.59 0.61 0.61 0.59 0.58 0.57 0.53 0.47 0.45 0.45 0.45 0.44 0.44 0.46 0.43 0.40 0.37 0.36 0.34 0.33 0.28
1.16 1.07 1.10 1.10 1.09 1.02 0.87 0.78 0.74 0.68 0.64 0.62 0.62 0.61 0.61 0.59 0.57 0.52 0.51 0.53 0.51 0.48 0.47 0.46 0.42 0.41 0.39 0.38 0.34 0.32 0.30 0.29
1.05 1.02 1.02 1.04 0.96 0.93 0.88 0.81 0.75 0.70 0.67 0.65 0.61 0.59 0.58 0.57 0.54 0.51 0.51 0.58 0.50 0.52 0.50 0.48 0.44 0.41 0.41 0.38 0.39 0.37 0.35 0.33
1.01 0.97 0.95 0.94 0.92 0.90 0.87 0.80 0.73 0.70 0.68 0.65 0.61 0.59 0.57 0.55 0.60 0.61 0.51 0.52 0.52 0.53 0.49 0.47 0.45 0.43 0.40 0.39 0.40 0.38 0.39 0.36
Wind_Speed
15 17 22 24 19 16 13 12 12 13 11 10 9 9 8 6 4 2 2 4 7 9 10 11 13 13 14 14 15 13 14 15
13 19 17 18 18 15 14 13 13 12 11 10 9 8 6 4 3 3 5 6 9 11 12 12 15 15 15 15 16 16 17 17
15 12 16 15 14 14 12 13 13 12 11 10 8 6 4 3 3 5 7 9 11 13 14 16 16 18 18 17 18 18 20 21
14 17 14 15 13 11 11 12 12 11 9 8 7 5 3 3 5 8 10 11 13 14 15 17 17 18 17 18 19 21 23 23
17 16 13 14 12 10 11 11 11 9 8 7 4 3 4 5 7 9 10 11 12 14 16 16 18 17 18 19 20 22 24 25
14 13 10 11 12 10 10 11 9 6 6 4 3 4 5 7 9 9 10 12 13 15 16 17 18 18 20 21 23 23 24 24
11 11 11 11 11 10 9 9 8 6 5 3 4 6 7 8 8 9 11 13 14 16 18 19 20 21 23 24 25 25 26 26
12 12 12 11 11 9 8 8 7 4 2 4 6 6 7 8 9 10 12 14 16 18 19 20 22 23 25 26 26 26 26 27
13 12 11 10 9 8 7 7 5 3 4 5 4 5 6 7 9 11 13 16 18 19 21 23 24 25 26 26 26 26 27 27
12 11 10 9 8 6 5 4 4 6 5 4 4 5 6 8 10 13 16 18 20 22 23 24 26 27 27 26 26 26 26 26
10 10 9 8 6 5 4 5 5 4 3 3 5 6 8 10 13 15 18 21 23 25 26 27 27 27 27 27 27 27 26 26
10 10 8 7 5 5 4 4 4 4 4 6 7 8 10 13 16 19 21 23 26 27 28 28 28 29 28 27 27 26 27 26
11 10 9 8 7 6 5 5 5 6 7 8 10 11 14 16 20 22 25 27 29 29 29 30 30 30 28 28 28 27 27 29
11 11 10 10 9 8 8 7 7 8 10 11 13 15 17 20 23 25 28 29 30 31 31 31 31 30 29 29 28 29 29 30
13 13 12 12 12 10 9 9 10 11 13 15 16 17 20 23 25 28 30 31 31 32 32 31 31 31 30 29 29 30 33 33
14 15 14 14 14 14 13 13 13 14 15 17 18 20 23 25 28 30 32 32 32 32 32 31 31 31 31 31 32 33 35 38
15 16 15 16 16 17 17 16 17 17 17 19 21 23 25 28 30 32 32 32 31 31 31 31 32 32 33 34 36 37 38 39
15 14 15 17 18 18 20 19 18 19 20 22 24 26 29 30 31 33 34 32 33 32 33 33 34 35 35 36 37 38 40 41
15 16 16 17 18 19 19 20 21 22 24 25 27 29 30 32 33 34 36 34 35 34 35 36 36 37 38 38 39 40 41 42
16 16 17 18 18 19 20 21 23 25 26 28 29 31 32 32 35 36 36 35 36 37 37 38 38 39 39 39 40 41 41 41
Wind_Direction
169 169 167 164 174 180 177 176 170 168 168 168 168 164 167 173 173 207 290 321 324 327 330 333 335 327 329 331 333 327 324 319
142 147 159 164 156 161 163 164 163 164 165 164 166 167 173 187 208 270 301 308 319 322 322 319 325 324 322 320 321 320 320 319
197 178 166 161 160 158 157 157 157 161 163 166 169 173 185 198 255 289 302 306 311 315 316 318 318 316 311 311 313 315 313 312
175 170 165 164 159 157 152 155 155 158 161 165 173 176 218 266 285 296 301 308 309 313 314 318 319 319 315 312 311 311 310 307
146 150 154 150 146 144 144 147 153 159 163 168 187 225 262 280 294 301 307 311 314 318 320 320 321 321 320 317 314 313 311 307
154 156 154 155 152 148 146 152 158 161 167 177 220 253 280 291 299 303 309 312 316 318 320 319 320 319 318 316 315 314 313 311
153 149 150 147 146 146 149 151 154 159 174 215 258 278 286 293 301 306 310 313 315 317 317 317 316 316 315 315 314 312 311 309
156 153 150 147 145 149 158 166 161 168 221 276 282 285 293 298 301 308 312 314 315 316 315 314 314 313 312 312 312 311 310 308
162 160 159 161 158 156 155 173 187 225 285 291 284 288 296 300 306 311 313 314 314 314 313 312 311 311 311 310 310 310 309 309
160 166 165 165 170 174 179 190 228 276 283 282 293 298 302 305 308 312 313 315 314 313 312 312 311 310 309 309 310 310 310 311
169 170 176 179 186 197 212 249 258 266 267 288 297 303 301 306 310 312 313 314 315 313 311 311 310 309 309 308 308 309 310 310
182 183 187 197 208 223 244 246 245 253 270 290 297 303 306 309 312 313 313 313 313 312 311 310 310 308 307 307 306 306 308 308
196 200 210 217 220 220 236 244 257 272 282 293 298 302 306 310 311 311 311 312 312 312 311 311 309 308 306 306 304 303 305 306
213 218 225 226 231 241 256 249 270 280 288 296 299 301 305 309 314 314 312 310 311 311 310 309 308 308 305 305 304 301 302 305
226 232 234 233 240 248 253 259 275 284 290 297 301 301 308 310 312 314 314 312 311 310 310 308 307 307 306 303 303 301 303 303
235 240 239 239 247 249 250 262 275 283 289 295 299 302 307 309 311 313 314 313 311 310 310 308 307 306 305 304 302 301 302 303
238 242 246 247 250 254 255 265 276 282 288 293 297 302 305 309 311 313 313 313 312 311 310 309 308 306 304 303 302 302 302 302
243 245 249 251 254 258 258 266 275 282 288 293 297 301 304 307 309 311 313 309 310 309 309 308 307 305 304 303 303 303 303 303
249 250 254 256 259 261 264 268 277 282 287 292 296 300 303 306 308 310 310 307 308 307 307 306 307 306 304 303 302 303 304 304
251 252 259 259 262 265 267 270 277 283 287 292 295 299 301 304 306 309 309 306 306 305 305 305 305 306 305 304 302 303 304 304